Location: Unspecified
(43.8044°N, 11.0278°E)
Time: 11:10:19
(UTC+01:00)

Okean 3 - Visible Passes

Search period start: 01 February 2015 00:00
Search period end: 11 February 2015 00:00
Orbit: 582 x 606 km, 82.5° (Epoch: 31 January)

Date Brightness Start Highest point End Pass type
(mag) Time Alt. Az. Time Alt. Az. Time Alt. Az.
01 Feb 3.4 18:50:29 10° N 18:54:49 72° E 18:59:04 10° SSE visible
01 Feb 6.9 20:31:06 10° WNW 20:31:36 10° W 20:31:52 10° W visible
02 Feb 3.7 19:00:07 10° NNW 19:04:26 73° W 19:08:41 10° S visible
03 Feb 4.6 19:09:52 10° NNW 19:14:01 46° W 19:18:06 10° SSW visible
04 Feb 5.5 19:19:45 10° NNW 19:23:33 30° W 19:27:15 10° SSW visible
05 Feb 6.8 06:13:11 10° ESE 06:15:02 13° E 06:17:06 10° ENE visible
05 Feb 6.2 19:29:51 10° NW 19:33:03 20° W 19:36:07 10° SW visible
06 Feb 6.5 06:21:29 10° SE 06:24:30 19° E 06:27:41 10° NE visible
06 Feb 3.6 18:01:22 10° N 18:05:36 54° E 18:09:47 10° SSE visible
06 Feb 6.8 19:40:23 10° NW 19:42:32 13° W 19:44:28 10° WSW visible
07 Feb 5.8 06:30:18 10° SSE 06:34:00 29° E 06:37:48 10° NNE visible
07 Feb 3.5 18:10:55 10° N 18:15:14 85° E 18:19:30 10° S visible
08 Feb 4.9 06:39:27 10° SSE 06:43:32 44° E 06:47:42 10° NNE visible
08 Feb 4.1 18:20:35 10° NNW 18:24:50 61° W 18:29:01 10° S visible
09 Feb 3.9 06:48:48 10° S 06:53:06 70° E 06:57:26 10° NNE visible
09 Feb 5.1 18:30:22 10° NNW 18:34:23 39° W 18:38:19 10° SSW visible
10 Feb 6.0 18:40:18 10° NNW 18:43:53 26° W 18:47:22 10° SW visible
